Probability
12 12 12 10 7 5 4 4 5 5 4 4 5 4 3 3 3 3 2 2 1 0 0 0 0 0 0 0 0 0 0 0 0 0 0 0 0 0 0 0 0 0 0
15 15 14 11 8 5 4 4 4 5 5 5 4 4 3 3 3 2 1 1 0 0 0 0 0 0 0 0 0 0 0 0 0 0 0 0 0 0 0 0 0 0 0
20 19 16 13 9 6 4 5 6 6 6 5 5 5 5 4 3 2 1 1 1 1 1 0 0 0 0 0 0 0 0 0 0 0 0 0 0 0 0 0 0 0 0
24 22 19 16 12 9 7 8 8 8 7 6 6 7 6 4 3 3 2 2 2 2 2 1 1 1 0 0 0 0 0 0 0 0 0 0 0 0 0 0 0 0 0
28 26 23 20 16 13 12 12 11 11 10 8 7 7 6 5 3 3 3 3 3 3 3 3 2 2 1 0 0 0 1 1 1 1 1 1 1 1 1 1 1 1 1
32 29 26 23 20 17 16 15 14 13 12 10 8 7 6 5 4 3 3 3 4 4 3 3 3 3 2 2 1 1 1 2 2 2 2 2 2 2 2 2 2 2 2
33 30 27 25 23 20 17 15 14 12 12 10 9 8 6 5 3 3 3 4 5 5 4 4 4 4 4 4 3 1 1 2 3 3 3 3 3 3 3 3 3 3 3
35 32 29 29 29 25 18 14 11 11 9 8 8 8 7 4 3 2 3 4 6 6 6 6 6 6 6 5 4 3 2 3 3 3 3 3 3 3 3 3 3 3 3
38 34 32 33 34 30 22 15 12 11 8 6 6 7 6 4 2 1 2 3 6 6 6 6 6 6 6 4 3 3 3 3 3 3 3 3 3 2 3 3 3 3 3
39 38 37 37 37 33 26 19 16 13 9 6 7 7 7 5 3 1 1 3 5 6 6 6 6 6 5 3 3 3 3 3 3 3 3 3 2 2 2 3 3 3 3
38 39 39 39 37 33 29 24 19 15 12 10 9 8 8 6 4 2 1 2 4 5 6 6 6 6 4 2 1 2 2 2 3 3 3 3 3 2 3 3 3 3 3
37 36 35 36 36 34 31 28 22 18 15 13 12 9 8 7 5 2 1 1 2 4 5 6 6 6 4 2 1 1 1 1 2 3 3 3 3 3 2 3 3 3 3
36 34 30 30 32 33 32 30 25 20 17 16 13 10 8 6 5 2 1 1 1 2 4 6 6 5 3 2 2 1 0 1 2 3 3 3 2 1 1 1 2 2 2
35 32 28 26 28 31 31 29 26 21 18 17 15 12 9 7 5 2 1 1 1 2 3 5 4 3 1 1 1 1 0 1 2 2 2 1 1 0 0 0 1 1 1
31 29 26 24 25 27 26 24 21 16 14 14 14 11 9 7 5 2 1 0 1 2 3 4 3 2 1 0 0 0 0 0 1 1 1 0 0 0 0 0 0 0 0
27 25 23 22 22 22 22 19 14 10 8 7 7 7 6 4 3 1 0 0 1 2 2 2 2 2 1 0 0 0 0 0 0 0 0 0 0 0 0 0 0 0 1
25 24 23 21 21 21 20 17 12 9 5 2 1 2 1 1 1 0 0 0 0 1 1 1 1 1 1 0 0 0 0 0 0 0 0 0 0 0 0 0 0 1 2
24 23 22 21 22 23 20 16 13 11 7 3 1 0 0 0 0 0 0 0 0 0 0 0 0 0 0 0 0 0 0 0 0 0 0 0 0 0 0 0 0 1 2
21 20 19 19 22 24 20 14 12 12 9 5 3 1 0 0 0 0 0 0 0 0 0 0 0 0 0 0 0 0 0 0 0 0 0 0 0 0 0 0 0 1 1
17 16 13 14 20 22 19 14 12 11 9 7 4 2 1 0 0 0 0 0 0 0 0 0 0 0 0 0 0 0 0 0 0 0 0 0 0 0 0 0 0 0 0
15 13 11 12 16 18 16 14 12 11 9 7 5 3 1 0 0 0 0 0 0 0 0 0 0 0 0 0 0 0 0 0 0 0 0 0 0 0 0 0 0 0 0
13 12 12 13 15 14 13 13 13 12 11 10 7 4 1 0 1 1 1 0 0 0 0 0 0 0 0 0 0 0 0 0 0 0 0 0 0 0 0 0 0 0 0
13 13 13 15 16 15 14 13 12 13 14 13 10 6 3 2 2 2 2 1 0 0 0 0 0 0 0 0 0 0 0 0 0 0 0 0 0 0 0 0 0 0 0
14 14 14 14 15 16 15 12 11 12 13 13 12 9 6 4 3 3 3 3 2 1 0 0 0 0 0 0 0 0 0 0 0 0 0 0 0 0 0 0 0 0 0
13 13 12 12 13 14 13 10 9 9 11 12 12 10 7 5 4 3 4 5 4 2 1 0 0 0 0 0 0 0 0 0 0 0 0 0 0 0 0 0 0 0 0
12 11 10 10 11 12 10 7 7 9 10 11 12 11 7 6 4 3 4 5 5 3 2 1 0 0 0 0 0 0 0 0 0 0 0 0 0 0 0 0 0 0 0
Wind_Speed
7 6 6 5 5 5 4 4 3 3 3 3 3 3 2 2 2 2 2 2 3 2 2 3 2 2 2 1 2 2 2 3 4 1 1 1 2 2 2 2 2 2 3
8 7 6 6 5 5 4 4 4 3 3 3 3 2 2 3 2 3 2 2 3 2 2 2 2 2 2 1 2 3 2 2 4 4 2 1 2 3 3 2 2 2 2
8 7 6 6 6 5 5 4 4 4 3 3 3 3 3 3 2 2 3 3 3 2 2 2 1 2 2 1 2 3 2 3 3 5 3 1 1 2 2 2 2 1 2
8 8 7 7 6 6 5 4 4 4 4 3 3 3 3 3 3 3 3 3 3 3 2 2 2 2 2 2 3 3 3 4 3 4 3 2 2 2 3 2 1 1 0
8 8 7 6 6 6 5 5 4 4 5 4 4 3 3 3 3 4 3 4 3 2 2 2 2 3 3 3 3 4 5 4 3 3 3 2 2 2 2 2 2 1 1
8 8 7 6 6 6 6 5 5 4 4 4 4 3 3 2 4 6 5 4 3 3 2 2 3 4 4 5 5 6 7 6 5 4 3 3 3 3 2 3 3 2 1
8 7 7 7 7 6 6 5 5 4 4 4 4 4 3 3 6 7 7 4 3 2 2 2 2 3 3 3 4 5 3 4 6 5 5 4 4 5 5 3 3 3 3
7 7 7 7 7 6 6 6 5 4 4 4 4 4 4 3 6 6 6 4 3 2 2 2 2 2 2 3 3 3 2 1 2 3 4 5 4 5 5 5 5 2 1
7 7 7 7 8 7 7 6 5 4 4 3 4 5 4 3 5 6 6 3 2 2 2 2 3 2 2 4 4 3 2 1 1 2 3 4 5 6 6 4 3 3 1
7 7 6 7 7 8 7 6 4 4 4 4 3 3 4 3 4 5 6 3 3 2 1 1 2 3 4 5 4 4 3 1 1 1 1 1 1 3 5 5 5 4 2
6 6 5 5 6 6 6 5 5 5 4 4 3 2 3 4 5 6 6 3 3 3 2 2 2 3 4 5 4 3 4 3 2 2 1 1 1 1 2 3 4 4 4
6 6 6 5 5 5 6 5 5 6 5 4 3 2 1 2 4 5 6 5 5 4 3 3 3 4 4 4 3 3 4 4 2 2 1 1 1 2 2 3 3 4 4
5 5 4 4 4 5 6 6 5 5 4 4 3 3 2 2 2 5 6 6 6 3 3 5 5 5 4 3 3 4 4 2 2 2 2 2 3 3 2 1 1 1 1
5 4 4 4 3 3 4 4 5 5 5 4 4 3 2 2 2 2 2 3 3 3 2 3 3 3 2 2 1 2 2 2 3 3 3 2 1 1 1 2 1 1 1
5 4 4 4 3 3 3 3 4 4 5 6 5 4 4 4 6 8 6 5 4 4 3 1 1 1 1 1 1 1 1 1 2 2 2 2 2 2 2 2 2 2 2
5 4 4 4 3 2 3 2 1 2 3 5 6 6 5 6 7 9 9 8 7 7 5 3 3 3 4 4 3 3 3 3 3 3 3 3 3 3 3 2 2 2 3
5 4 3 3 3 4 4 4 2 1 0 2 4 6 6 6 7 8 8 8 7 8 4 3 4 4 4 4 4 4 3 4 3 3 3 3 3 3 3 2 2 2 3
4 4 3 3 3 3 4 4 4 3 2 1 2 4 5 5 6 7 7 6 3 4 3 4 4 4 4 4 4 4 3 3 2 3 3 3 3 3 3 3 3 4 4
4 3 2 3 3 3 3 3 3 3 3 2 1 1 2 3 3 4 6 4 4 5 5 4 4 4 3 4 4 4 4 3 3 3 3 4 3 3 3 3 4 5 4
3 4 4 3 3 3 3 3 3 4 4 4 3 3 2 3 2 3 4 4 4 4 5 5 4 4 4 4 4 4 3 3 4 4 4 4 4 4 4 5 4 4 4
3 3 4 3 3 3 3 4 4 4 4 4 4 5 8 5 5 5 5 5 5 5 5 5 4 4 4 3 3 4 4 4 4 4 4 3 3 3 3 4 4 4 3
2 3 3 3 3 3 3 3 4 4 5 5 3 4 8 4 4 4 5 5 5 5 4 4 4 4 4 4 4 4 4 4 4 3 3 3 3 3 3 3 3 3 3
2 2 2 2 2 3 3 3 3 4 4 4 4 4 5 5 5 5 5 5 4 4 3 3 3 3 3 3 3 4 4 5 4 4 4 4 3 3 3 3 4 4 4
2 2 2 2 2 3 2 3 3 3 3 4 4 4 5 5 5 5 5 4 4 4 4 4 4 5 5 3 3 3 3 4 3 4 5 5 4 4 3 4 4 5 4
2 2 2 2 3 3 3 3 3 3 3 3 3 4 4 5 5 5 4 4 4 4 5 5 4 4 5 6 4 3 4 5 4 3 3 4 4 4 3 4 3 4 4
2 2 2 2 2 2 3 3 3 3 3 3 3 3 4 5 4 4 4 4 4 4 4 4 5 5 5 5 5 5 5 5 5 4 3 3 4 3 3 3 4 3 4
Wind_Direction
171 169 166 165 162 155 154 160 158 146 141 138 130 115 107 101 101 99 94 87 85 66 61 77 69 80 95 102 110 114 115 122 131 131 112 137 131 132 112 90 78 65 79
172 166 166 162 155 157 166 169 157 148 146 143 133 120 115 105 99 101 101 88 91 88 81 83 75 89 85 99 109 116 125 130 139 145 146 146 150 157 142 127 114 102 90
164 163 164 165 163 169 174 169 156 148 143 136 130 128 121 110 101 99 101 93 88 92 95 97 96 100 92 96 114 120 122 118 125 142 152 146 136 144 120 117 113 86 116
161 163 169 174 174 174 165 158 158 149 141 138 131 127 124 115 107 103 100 94 86 74 75 87 95 115 133 132 123 123 123 117 119 132 132 135 136 140 127 130 109 65 120
165 170 176 173 166 160 157 157 153 148 147 144 131 123 123 121 122 123 119 112 103 86 65 64 80 94 107 123 136 140 135 134 134 137 149 138 141 147 168 167 155 146 354
167 174 170 163 161 160 159 154 150 149 146 136 138 138 139 138 133 134 130 122 118 111 95 66 72 74 84 90 119 142 152 155 161 163 174 174 186 178 160 158 150 140 218
165 166 162 161 160 162 160 153 157 159 148 144 149 143 146 151 139 136 134 132 129 128 127 113 90 77 81 89 94 103 126 154 166 169 173 189 185 185 166 163 172 172 199
165 167 164 161 161 158 154 159 162 151 151 159 162 155 148 157 145 141 135 126 126 136 138 134 120 102 106 112 103 90 83 112 166 169 181 194 189 180 175 172 173 160 124
167 170 170 167 163 161 164 166 161 152 154 164 164 156 152 165 160 147 137 128 127 132 136 132 136 136 147 132 117 109 82 8 25 137 163 175 176 174 163 136 136 130 167
178 172 167 166 167 170 170 165 158 152 153 146 142 152 158 171 177 159 147 141 140 139 129 143 156 154 151 145 142 143 150 203 133 94 90 94 141 169 173 172 169 164 172
162 151 152 160 167 167 161 155 150 148 143 144 145 151 169 185 183 173 163 156 164 165 172 190 214 183 163 161 162 172 190 175 152 137 122 102 95 156 190 191 186 177 181
146 148 153 157 165 161 154 153 152 151 151 158 156 167 202 203 189 187 180 177 171 171 191 200 207 194 181 174 176 181 164 139 128 133 144 186 211 224 226 217 204 207 207
137 145 150 152 154 154 158 160 159 160 162 171 173 185 206 208 206 197 191 186 182 181 203 204 202 200 192 192 194 174 154 143 144 160 196 224 228 224 212 214 222 220 247
135 141 144 147 146 148 156 160 166 173 175 178 184 189 188 184 196 196 201 196 190 189 201 199 189 194 199 212 210 193 178 179 177 192 212 232 224 196 201 200 204 203 219
139 146 149 146 152 153 152 164 177 185 184 182 190 184 183 203 216 199 189 194 196 196 164 137 132 145 186 237 238 223 200 185 201 213 206 210 214 210 221 211 196 190 203
147 154 154 148 148 154 147 123 63 172 180 191 199 193 209 213 204 198 200 198 192 172 155 173 195 197 201 206 210 225 219 212 215 212 209 207 209 212 225 224 202 196 212
157 160 154 157 164 171 173 172 180 276 251 224 221 212 207 200 198 198 198 190 176 162 174 200 205 207 212 213 212 215 223 223 212 207 215 216 212 210 208 213 212 215 222
150 159 158 163 170 174 178 184 183 179 194 257 259 229 211 202 199 199 183 153 162 187 210 212 216 216 216 214 215 218 223 222 213 214 220 220 212 204 206 213 214 218 219
152 157 166 165 169 173 180 185 187 185 190 208 224 263 219 189 184 188 166 175 193 207 217 222 219 218 220 218 216 214 212 213 215 211 214 217 214 207 217 225 225 225 215
166 172 174 173 172 178 187 192 194 192 196 204 209 203 160 140 168 194 201 209 208 213 217 220 220 216 215 216 213 211 211 214 216 217 219 219 216 210 216 222 224 218 216
176 184 186 179 185 189 195 201 200 193 198 207 213 200 180 185 199 205 207 212 213 214 215 217 217 213 213 211 209 211 215 220 219 218 217 217 214 217 222 221 220 216 214
175 183 192 196 198 197 200 204 201 197 202 207 212 199 189 196 205 209 213 218 220 218 213 207 211 212 209 208 207 209 218 224 220 218 220 219 217 218 217 215 218 216 208
177 192 198 199 197 197 198 194 197 201 205 207 201 188 186 206 215 214 216 219 217 214 209 203 207 221 224 218 210 205 212 222 223 217 213 213 218 221 215 216 217 214 214
174 186 193 197 200 200 202 207 207 207 207 204 199 190 191 200 211 214 214 213 211 210 204 199 205 213 216 217 215 213 217 218 212 208 207 210 217 225 225 220 218 215 213
181 192 201 205 208 208 206 210 210 210 209 207 202 196 196 199 209 213 212 208 204 205 203 199 203 208 210 211 209 212 214 211 210 203 205 210 216 219 217 214 214 214 211
191 196 200 201 208 209 207 213 218 216 218 218 211 204 198 198 204 209 205 201 201 205 206 205 206 204 203 204 207 207 210 212 211 207 201 203 210 216 213 219 218 213 208